Tracking 23439 objects as of 16-Jun-2021
HD Live streaming from Space Station
objects crossing your sky now

SL-16 DEB

Track SL-16 DEB now!
10-day predictions


NORAD ID: 25862
Int'l Code: 1999-039C
Perigee: 648.0 km
Apogee: 884.2 km
Inclination: 97.8 °
Period: 100.0 minutes
Semi major axis: 7137 km
RCS: 0.0838 m2 (small)
Launch date: July 17, 1999
Source: Commonwealth of Independent States (former USSR) (CIS)
Launch site: TYURATAM MISSILE AND SPACE COMPLEX (TTMTR)

Note: This is SATELLITE DEBRIS
aabbcc
Your satellite tracking list
Your tracking list is empty




NASA's NSSDC Master Catalog

Two Line Element Set (TLE):
1 25862U 99039C   21166.90448726  .00000122  00000-0  45207-4 0  9996
2 25862  97.8020 285.3634 0165489 327.0986  31.9986 14.39859719149523
Source of the keplerian elements: AFSPC